Regional Weather Roundup
Issued by NWS

Home | Current Version | Previous Version | Graphics & Text | Print | Product List | Glossary On
Versions: 1 2 3 4 5 6 7 8 9 10 11 12 13 14 15 16 17 18 19 20 21 22 23 24 25 26 27 28 29 30 31 32 33 34 35 36 37 38 39 40 41 42 43 44 45 46 47 48 49 50
000
ASUS44 KMEG 302110
RWRTN
TENNESSEE HOURLY STATE WEATHER ROUNDUP
NATIONAL WEATHER SERVICE MEMPHIS TN
400 PM CDT SUN AUG 30 2015

TNZ002-004-019-021-049-052-054-088>092-302200-
WEST TENNESSEE

CITY           SKY/WX    TMP DP  RH WIND       PRES   REMARKS
MEMPHIS INTL   PTSUNNY   91  67  44 S6        30.00F HX  94
NWS MEMPHIS      N/A     92 N/A N/A MISG        N/A
JACKSON        PTSUNNY   81  70  69 VRB7      30.02S
DYERSBURG      MOSUNNY  N/A N/A N/A MISG        N/A
UNION CITY     SUNNY     84  72  65 CALM      30.01F
PARIS          MOSUNNY   72  68  88 CALM      30.05F
LEXINGTON      PTSUNNY   75  72  88 SW3       30.04F
$$

TNZ008-025-027-028-033-062-065-066-302200-
NORTH MIDDLE TENNESSEE

CITY           SKY/WX    TMP DP  RH WIND       PRES   REMARKS
NASHVILLE      PTSUNNY   79  62  56 S7        30.09F
CLARKSVILLE    CLOUDY    84  67  56 S6        30.04F
SMYRNA         CLOUDY    79  67  66 S7        30.10F
COOKEVILLE     MOSUNNY   77  72  83 CALM      30.10F
CROSSVILLE     CLOUDY    77  61  57 CALM      30.15F
$$

TNZ061-075-076-078-094-096-097-302200-
SOUTH MIDDLE TENNESSEE

CITY           SKY/WX    TMP DP  RH WIND       PRES   REMARKS
FAYETTEVILLE     N/A     72  63  73 CALM      30.10F
TULLAHOMA      SUNNY     73  66  78 CALM      30.11F
WINCHESTER     PTSUNNY   73  64  73 CALM      30.11F
MCMINNVILLE    MOSUNNY   73  68  83 CALM      30.11F
COLUMBIA       SUNNY     79  68  69 S6        30.07F
SHELBYVILLE    MOSUNNY   73  70  88 S3        30.10F
$$

TNZ017-018-042-046-047-302200-
NORTHEAST TENNESSEE

CITY           SKY/WX    TMP DP  RH WIND       PRES   REMARKS
TRI CITIES     PTSUNNY   81  62  52 E5        30.14S
ELIZABETHTON   MOCLDY    75  61  60 E5        30.15S
$$

TNZ012-013-036-069-073-074-302200-
CENTRAL EAST TENNESSEE

CITY           SKY/WX    TMP DP  RH WIND       PRES   REMARKS
KNOXVILLE      LGT RAIN  71  67  87 SE3       30.10R
OAK RIDGE      CLOUDY    81  67  62 CALM      30.11F
GATLINBURG     CLEAR     81  63  54 CALM      30.10S
MORRISTOWN     CLEAR     79  64  61 N5        30.13S
$$

TNZ083-085-099-302200-
SOUTHEAST TENNESSEE

CITY           SKY/WX    TMP DP  RH WIND       PRES   REMARKS
CHATTANOOGA    CLOUDY    80  63  55 E6        30.09F
$$

SKY/WX REPORTED AS FAIR MEANS FEW OR NO CLOUDS BELOW
12 THOUSAND FEET.



USA.gov is the U.S. government's official web portal to all federal, state and local government web resources and services.